Weather History for Crestview, FL

Change the Weather History Date:

Friday, August 30, 2013

  Actual Average Record
Temperature  
Mean Temperature 82 °F -  
Max Temperature 93 °F - - ()
Min Temperature 73 °F - - ()
Cooling Degree Days 18    
Growing Degree Days 32 (Base 50)    
Moisture  
Dew Point 72 °F    
Average Humidity 72    
Maximum Humidity 89    
Minimum Humidity 52    
Precipitation  
Precipitation 0.00 in - - ()
Sea Level Pressure  
Sea Level Pressure 29.97 in    
Wind  
Wind Speed 4 mph (WNW)    
Max Wind Speed 10 mph    
Max Gust Speed -    
Visibility 10 miles    
Events      
T = Trace of Precipitation, MM = Missing Value Source: NWS Daily Summary

Daily Weather History Graph

Daily Weather History Graph

Search for Another Location

Airport:

Trip Planner

Search our weather history database for the weather conditions in past years. The results will help you decide how hot, cold, wet, or windy it might be!

Date:

Astronomy

Aug. 30, 2013 Rise Set
Actual Time 6:21 AM CDT 7:11 PM CDT
Civil Twilight 5:56 AM CDT 7:35 PM CDT
Nautical Twilight 5:27 AM CDT 8:04 PM CDT
Astronomical Twilight 4:58 AM CDT 8:34 PM CDT
Moon 1:11 AM CDT (8/30) 3:14 PM CDT (8/30)
Length of Visible Light 13h 38m
Length of Day
12h 49m
Waning Crescent, 29% of the Moon is Illuminated
Aug 30
Waning Crescent
Sep 5
New
Sep 12
First Quarter
Sep 19
Full
Sep 26
Last Quarter

Hourly Weather History & Observations

Time (CDT) Temp. Heat Index Dew Point Humidity Pressure Visibility Wind Dir Wind Speed Gust Speed Precip Events Conditions
12:26 AM 77.0 °F - 71.6 °F 83% 29.99 in 10.0 mi Calm Calm - N/A   Light Drizzle
12:35 AM 75.2 °F - 71.6 °F 89% 29.99 in 10.0 mi West 3.5 mph - N/A   Clear
12:58 AM 75.9 °F - 71.2 °F 85% 29.99 in 10.0 mi West 4.6 mph - 0.00 in   Clear
1:58 AM 75.4 °F - 70.2 °F 84% 29.99 in 10.0 mi West 4.6 mph - N/A   Clear
2:58 AM 74.7 °F - 69.3 °F 83% 29.99 in 10.0 mi WNW 2.3 mph - N/A   Clear
3:58 AM 74.5 °F - 69.1 °F 83% 29.99 in 10.0 mi West 4.6 mph - N/A   Clear
4:58 AM 73.8 °F - 68.7 °F 84% 29.99 in 10.0 mi West 3.5 mph - N/A   Clear
5:58 AM 73.0 °F - 68.5 °F 86% 29.99 in 10.0 mi NW 2.3 mph - N/A   Clear
6:58 AM 73.0 °F - 68.7 °F 86% 30.01 in 10.0 mi WNW 3.5 mph - N/A   Clear
7:58 AM 76.1 °F - 69.1 °F 79% 30.02 in 10.0 mi NW 6.9 mph - N/A   Scattered Clouds
8:58 AM 79.3 °F - 69.8 °F 72% 30.04 in 10.0 mi NW 5.8 mph - N/A   Scattered Clouds
9:58 AM 83.7 °F 88.6 °F 71.1 °F 66% 30.04 in 10.0 mi WNW 8.1 mph - N/A   Clear
10:58 AM 86.7 °F 93.3 °F 72.1 °F 62% 30.02 in 10.0 mi West 8.1 mph - N/A   Clear
11:58 AM 88.3 °F 95.9 °F 73.0 °F 60% 30.01 in 10.0 mi NNW 5.8 mph - N/A   Partly Cloudy
12:58 PM 89.8 °F 98.1 °F 73.0 °F 58% 29.99 in 10.0 mi NW 3.5 mph - N/A   Partly Cloudy
1:58 PM 91.6 °F 100.5 °F 73.2 °F 55% 29.97 in 10.0 mi NW 8.1 mph - N/A   Partly Cloudy
2:58 PM 91.6 °F 99.9 °F 72.7 °F 54% 29.94 in 10.0 mi WSW 4.6 mph - N/A   Clear
3:58 PM 92.8 °F 101.5 °F 72.7 °F 52% 29.94 in 10.0 mi NW 9.2 mph - N/A   Clear
4:58 PM 92.3 °F 100.9 °F 73.0 °F 53% 29.91 in 10.0 mi NW 10.4 mph - N/A   Clear
5:58 PM 91.0 °F 99.8 °F 73.6 °F 56% 29.91 in 10.0 mi WNW 5.8 mph - N/A   Partly Cloudy
6:58 PM 87.8 °F 96.6 °F 74.1 °F 64% 29.91 in 10.0 mi West 3.5 mph - N/A   Partly Cloudy
7:58 PM 84.6 °F 92.8 °F 75.0 °F 73% 29.94 in 10.0 mi Calm Calm - N/A   Partly Cloudy
8:58 PM 82.6 °F 88.8 °F 73.8 °F 75% 29.94 in 10.0 mi West 3.5 mph - N/A   Clear
9:58 PM 80.2 °F 84.9 °F 73.8 °F 81% 29.94 in 10.0 mi Calm Calm - N/A   Clear
10:58 PM 80.8 °F 85.9 °F 74.1 °F 80% 29.94 in 10.0 mi West 5.8 mph - N/A   Clear
11:58 PM 80.1 °F 84.5 °F 73.9 °F 81% 29.91 in 10.0 mi West 5.8 mph - N/A   Clear